Regional Weather Roundup
Issued by NWS

Home | Current Version | Previous Version | Text Only | Print | Product List | Glossary On
Versions: 1 2 3 4 5 6 7 8 9 10 11 12 13 14 15 16 17 18 19 20 21 22 23 24 25 26 27
000
ASUS45 KBOU 191107
RWRCO

WEATHER ROUNDUP FOR COLORADO
NATIONAL WEATHER SERVICE DENVER/BOULDER CO
500 AM MDT SAT AUG 19 2017

NOTE: "FAIR" INDICATES FEW OR NO CLOUDS BELOW 12000 FEET WITH NO
SIGNIFICANT WEATHER AND/OR OBSTRUCTIONS TO VISIBILITY.

COZ001>005-013-030-031-191200-
...NORTHWEST COLORADO...

CITY           SKY/WX    TMP DP  RH WIND       PRES   REMARKS
CRAIG          FAIR      43  35  73 CALM      30.22S
HAYDEN         FAIR      52  35  52 E12       30.25S
MEEKER         FAIR      48  36  63 NE7       30.23S
RABBIT EARS PA FAIR      52  30  43 W5        30.51S
STEAMBOAT SPGS FAIR      48  36  62 CALM      30.26S
WALDEN         FAIR      37  30  75 S5        30.35S
$$

COZ006>008-011-191200-
...WEST CENTRAL VALLEYS...

CITY           SKY/WX    TMP DP  RH WIND       PRES   REMARKS
GRAND JUNCTION FAIR      64  35  34 E12       30.10R
MONTROSE       FAIR      57  39  51 S6        30.20S
EAGLE          FAIR      48  31  51 CALM      30.30R
RIFLE          FAIR      53  32  44 S6        30.18S
DELTA          FAIR      61  35  36 NE8       30.16S
NUCLA          FAIR      54  32  43 E6        30.23S
$$

COZ017>023-064>068-191200-
...SOUTHWEST COLORADO...

CITY           SKY/WX    TMP DP  RH WIND       PRES   REMARKS
DURANGO        FAIR      50  36  58 NE7       30.26R
CORTEZ         FAIR      49  37  63 E6        30.19F
PAGOSA SPRINGS MOCLDY    52  33  48 CALM      30.35R
TELLURIDE      FAIR      54  32  43 SE5       30.46S
WOLF CREEK PAS MOCLDY    50  27  40 S3        30.69S
$$

COZ009-010-012-014-032>034-037-058>063-191200-
...CENTRAL COLORADO...

CITY           SKY/WX    TMP DP  RH WIND       PRES   REMARKS
ASPEN          FAIR      50  34  54 S6        30.33S
BUENA VISTA    FAIR      47  36  65 NW5       30.37S
COPPER MTN     FAIR      54  27  35 W14       30.63F
BERTHOUD PASS  FAIR      43  37  81 NW26      30.64F
COTTONWOOD PAS FAIR      59  27  29 W5        30.49S
GUNNISON       FAIR      43  35  73 NE3       30.39S
KREMMLING      FAIR      45  37  76 CALM      30.35R
LEADVILLE      FAIR      40  30  67 NE5       30.48F
MONARCH PASS   FAIR      48  30  49 W17       30.74S
SALIDA         FAIR      52  39  62 W5        30.42S
SUNLIGHT       FAIR      50  25  37 SW7       30.56F
WILKERSON PASS FAIR      50  32  50 W5        30.61F
$$

COZ069>075-191200-
...SAN LUIS VALLEY/SANGRE DE CRISTO MOUNTAINS...

CITY           SKY/WX    TMP DP  RH WIND       PRES   REMARKS
ALAMOSA        FAIR      47  38  71 CALM      30.33S
DEL NORTE      FAIR      53  35  51 W10       30.37R
LA VETA PASS   NOT AVBL
SAGUACHE       FAIR      46  36  66 NW8       30.38R
$$

COZ035-036-038>040-191200-
...NORTHERN COLORADO FRONT RANGE...

CITY           SKY/WX    TMP DP  RH WIND       PRES   REMARKS
DENVER INTL AP FAIR      65  46  50 SW10      30.10S
DMNS CITY PARK   N/A     64  43  46 S7        30.11S
AURORA         CLEAR     66  47  49 S13       30.12S
FRONT RANGE AP FAIR      66  50  55 S15       30.11F
ERIE MUNI ARPT FAIR      53  47  79 CALM      30.15R
BOULDER MUN AP FAIR      61  45  55 CALM      30.09F
CENTENNIAL     FAIR      64  44  48 SE3       30.14F
BROOMFIELD     NOT AVBL
FORT COLLINS   FAIR      57  49  74 N8        30.09S
LONGMONT       FAIR      56  46  69 SW3       30.10F
$$

COZ041-046-047-076>085-087-088-191200-
...PIKES PEAK/PALMER DIVIDE AND SOUTHERN FOOTHILLS...

CITY           SKY/WX    TMP DP  RH WIND       PRES   REMARKS
COLO. SPRINGS  MOCLDY    58  51  78 N7        30.20F
A. F. ACADEMY  FAIR      51  47  85 N7        30.22S
SCHRIEVER AFB  FAIR      59  51  75 MISG      30.20F
CHEYENNE MTN   MOCLDY    66  41  41 CALM      30.19S
ELLICOTT       NOT AVBL
FALCON         FAIR      55  49  80 W12       30.25S
FORT CARSON    CLOUDY    58  49  69 NW10      30.17S
LIMON          FAIR      51  51 100 CALM      30.15F
MONUMENT HILL  FAIR      54  46  76 SW7       30.25F
CANON CITY     CLEAR     68  45  42 W12       30.14S
WALSENBURG     FAIR      61  43  51 SW10      30.19F
TRINIDAD       FAIR      70  49  47 W16G24    30.16F
$$

COZ042>045-048>051-090-091-191200-
...NORTHEAST COLORADO...

CITY           SKY/WX    TMP DP  RH WIND       PRES   REMARKS
GREELEY ARPT   NOT AVBL
AKRON          FAIR      65  53  65 S15       30.07F
BURLINGTON     FAIR      62  56  80 S13       30.08F
WRAY           NOT AVBL
YUMA           FAIR      59  45  58 S10       30.04F
STERLING       FAIR      57  54  88 SW5       30.03F
HOLYOKE        FAIR      59  54  82 S7        30.03F
FORT MORGAN    FAIR      61  52  74 CALM      30.07F
$$

COZ086-089-092>099-191200-
...SOUTHEAST COLORADO...

CITY           SKY/WX    TMP DP  RH WIND       PRES   REMARKS
PUEBLO         FAIR      59  53  80 NW7       30.10S
LA JUNTA       FAIR      62  59  90 E7        30.07S
LAMAR          FAIR      61  58  90 E7        30.04F
SPRINGFIELD      N/A     60  60 100 SW6       30.09F
$$




USA.gov is the U.S. government's official web portal to all federal, state and local government web resources and services.